Weather History for Point Lay, AK

Change the Weather History Date:

Sunday, November 18, 2012

  Actual Average Record
Temperature  
Mean Temperature -3 °F -  
Max Temperature 2 °F 11 °F 32 °F (1996)
Min Temperature -8 °F 2 °F -26 °F (2005)
Degree Days  
Heating Degree Days 68    
Moisture  
Dew Point -9 °F    
Average Humidity 78    
Maximum Humidity 85    
Minimum Humidity 72    
Precipitation  
Precipitation 0.00 in - - ()
Sea Level Pressure  
Sea Level Pressure 30.40 in    
Wind  
Wind Speed 13 mph (NE)    
Max Wind Speed 16 mph    
Max Gust Speed -    
Visibility 10 miles    
Events Snow    
Averages and records for this station are not official NWS values.
T = Trace of Precipitation, MM = Missing Value Source: NWS Daily Summary

Daily Weather History Graph

Daily Weather History Graph

Search for Another Location

Airport:

Trip Planner

Search our weather history database for the weather conditions in past years. The results will help you decide how hot, cold, wet, or windy it might be!

Date:

Astronomy

Nov. 18, 2012 Rise Set
Actual Time 12:00 PM AKST 3:12 PM AKST
Civil Twilight 10:15 AM AKST 4:58 PM AKST
Nautical Twilight 8:51 AM AKST 6:21 PM AKST
Astronomical Twilight 7:39 AM AKST 7:34 PM AKST
Moon 3:19 PM AKST (11/18) 10:13 PM AKST (11/18)
Length of Visible Light 6h 42m
Length of Day
3h 11m
Waxing Crescent, 31% of the Moon is Illuminated
Nov 18
Waxing Crescent
Nov 20
First Quarter
Nov 28
Full
Dec 6
Last Quarter
Dec 12
New

Hourly Weather History & Observations

Time (AKST) Temp. Windchill Dew Point Humidity Pressure Visibility Wind Dir Wind Speed Gust Speed Precip Events Conditions
12:56 AM -8.0 °F -25.0 °F -13.9 °F 75% 30.32 in 10.0 mi ENE 9.2 mph - N/A   Clear
1:56 AM -6.0 °F -26.3 °F -11.9 °F 75% 30.33 in 10.0 mi NE 13.8 mph - N/A   Partly Cloudy
2:56 AM -6.9 °F -27.4 °F -11.9 °F 79% 30.32 in 10.0 mi ENE 13.8 mph - N/A   Clear
3:56 AM -6.9 °F -26.6 °F -11.9 °F 79% 30.33 in 10.0 mi ENE 12.7 mph - N/A   Clear
4:56 AM -4.9 °F -25.6 °F -9.9 °F 79% 30.34 in 10.0 mi NE 15.0 mph - N/A   Scattered Clouds
5:09 AM -4.0 °F -24.5 °F -9.4 °F 78% 30.33 in 10.0 mi NE 15.0 mph - N/A   Mostly Cloudy
5:56 AM -1.8 °F -21.7 °F -8.0 °F 75% 30.35 in 10.0 mi NE 15.0 mph - N/A   Overcast
6:56 AM 0.1 °F -18.5 °F -6.0 °F 75% 30.36 in 10.0 mi ENE 13.8 mph - N/A   Overcast
7:43 AM -0.4 °F -18.4 °F -5.8 °F 78% 30.35 in 10.0 mi NE 12.7 mph - N/A   Scattered Clouds
7:56 AM -0.9 °F -19.1 °F -6.9 °F 76% 30.37 in 10.0 mi NE 12.7 mph - N/A   Partly Cloudy
8:41 AM -2.2 °F -19.9 °F -7.6 °F 78% 30.36 in 10.0 mi NE 11.5 mph - N/A   Mostly Cloudy
8:56 AM -2.9 °F -22.4 °F -8.0 °F 79% 30.38 in 10.0 mi NE 13.8 mph - N/A   Scattered Clouds
9:56 AM -4.9 °F -23.2 °F -9.9 °F 79% 30.40 in 10.0 mi NE 11.5 mph - N/A   Clear
10:56 AM -6.0 °F -24.6 °F -10.8 °F 79% 30.41 in 10.0 mi NE 11.5 mph - N/A   Clear
11:56 AM -6.9 °F -25.7 °F -11.9 °F 79% 30.42 in 10.0 mi NE 11.5 mph - N/A   Clear
12:45 PM -2.2 °F -20.7 °F -7.6 °F 78% 30.39 in 10.0 mi ENE 12.7 mph - N/A   Mostly Cloudy
12:56 PM -0.9 °F -18.3 °F -6.0 °F 79% 30.42 in 10.0 mi ENE 11.5 mph - N/A   Overcast
1:26 PM 1.4 °F -18.2 °F -2.2 °F 85% 30.40 in 10.0 mi ENE 16.1 mph - 0.00 in Snow Light Snow
1:56 PM 2.1 °F -16.0 °F -2.9 °F 79% 30.42 in 10.0 mi NE 13.8 mph - 0.00 in Snow Light Snow
2:56 PM 2.1 °F -17.3 °F -4.0 °F 76% 30.41 in 10.0 mi ENE 16.1 mph - 0.00 in   Mostly Cloudy
3:56 PM 2.1 °F -16.6 °F -4.0 °F 76% 30.44 in 10.0 mi ENE 15.0 mph - 0.00 in   Overcast
4:38 PM -0.4 °F -17.6 °F -7.6 °F 72% 30.42 in 10.0 mi ENE 11.5 mph - N/A   Scattered Clouds
4:56 PM -2.9 °F -19.8 °F -8.0 °F 79% 30.44 in 10.0 mi NE 10.4 mph - N/A   Clear
5:56 PM -2.9 °F -23.1 °F -8.0 °F 79% 30.45 in 10.0 mi ENE 15.0 mph - N/A   Clear
6:56 PM -4.9 °F -22.3 °F -9.9 °F 79% 30.46 in 10.0 mi ENE 10.4 mph - N/A   Mostly Cloudy
7:10 PM -5.8 °F -22.4 °F -11.2 °F 77% 30.45 in 10.0 mi NE 9.2 mph - N/A   Scattered Clouds
7:56 PM -6.9 °F -25.7 °F -11.9 °F 79% 30.48 in 10.0 mi NE 11.5 mph - N/A   Clear
8:56 PM -6.9 °F -28.2 °F -11.9 °F 79% 30.48 in 10.0 mi ENE 15.0 mph - N/A   Clear
9:56 PM -8.0 °F -27.1 °F -13.9 °F 75% 30.48 in 10.0 mi ENE 11.5 mph - N/A   Clear
10:56 PM -6.9 °F -28.2 °F -11.9 °F 79% 30.48 in 10.0 mi ENE 15.0 mph - N/A   Clear
11:56 PM -6.0 °F -27.7 °F -10.8 °F 79% 30.48 in 10.0 mi ENE 16.1 mph - N/A   Partly Cloudy